Flag for Canada Weather past 2 weeks in Fort Smith, Northwest Territories, Canada

Now
-15 °F

Passing clouds.


Feels Like: -25 °F
Forecast: -21 / -14 °F
Wind: 3 mph from Northwest

Location: Fort Smith

Current Time: Jan 27, 2015 at 4:06:31 PM

Latest Report: Jan 27, 2015 at 3:00 PM


Visibility: 15 mi

Pressure: 30.36 "Hg

Humidity: 69%

Dew point: -22 °F

Location of Fort SmithLocation

Historic Weather in Fort Smith — Graph

°F

Fort Smith temperature yesterday

Maximum temperature yesterday: 10 °F (at 12:00 AM)
Minimum temperature yesterday: -9 °F (at 11:00 PM)
Average temperature yesterday: 3 °F

Past Weeks' High & Low Weather Summary

 TemperatureHumidityPressure
High27 °F (Jan 21, 8:00 PM)100% (Jan 22, 4:00 AM)30.38 "Hg (Jan 22, 4:00 AM)
Low-24 °F (Jan 15, 9:00 AM)65% (Jan 17, 11:00 AM)29.19 "Hg (Jan 16, 1:00 PM)
Average2 °F83%29.86 "Hg
* Reported Jan 12 3:00 PM — Jan 27 3:00 PM, Fort Smith, Weather by CustomWeather, © 2014

Note: Actual official high and low records may vary slightly from our data, if they occured in-between our weather recording intervals... More about our weather records

Advertising

Fort Smith weather history for previous 24 hours

 ConditionsComfort  
Time TempWeatherWind HumidityBarometerVisibility
3:00 PM
Jan 27
-15 °FPassing clouds.3 mph69%30.36 "Hg15 mi
2:00 PM-15 °FPassing clouds.5 mph69%30.38 "Hg15 mi
1:00 PM-15 °FBroken clouds.5 mph76%30.37 "Hg15 mi
12:00 PM-15 °FOvercast.6 mph76%30.36 "Hg15 mi
11:00 AM-17 °FOvercast.7 mph76%30.36 "Hg15 mi
10:00 AM-20 °FPassing clouds.N/A75%30.33 "Hg15 mi
9:00 AM-20 °FBroken clouds.5 mph75%30.32 "Hg15 mi
8:00 AM-20 °FPassing clouds.7 mph75%30.31 "Hg15 mi
7:00 AM-17 °FPassing clouds.7 mph76%30.28 "Hg15 mi
6:00 AM-17 °FPassing clouds.8 mph76%30.28 "Hg15 mi
5:00 AM-17 °FClear.8 mph76%30.26 "Hg15 mi
4:00 AM-17 °FClear.6 mph76%30.24 "Hg15 mi
3:00 AM-15 °FClear.8 mph76%30.24 "Hg15 mi
2:00 AM-15 °FClear.8 mph76%30.21 "Hg15 mi
1:00 AM-13 °FClear.9 mph76%30.19 "Hg15 mi
12:00 AM-11 °FClear.9 mph76%30.17 "Hg15 mi
11:00 PM
Jan 26
-9 °FClear.9 mph77%30.14 "Hg15 mi
10:00 PM-8 °FLight snow. Clear.10 mph77%30.11 "Hg12 mi
9:00 PM-8 °FLight snow. Clear.10 mph77%30.09 "Hg12 mi
8:00 PM-6 °FLight snow. Passing clouds.13 mph84%30.06 "Hg12 mi
7:00 PM-2 °FPassing clouds.10 mph77%30.03 "Hg12 mi
6:00 PM0 °FPassing clouds.9 mph78%30.01 "Hg15 mi
5:00 PM1 °FPassing clouds.16 mph71%29.97 "Hg15 mi
4:00 PM3 °FLight snow. Overcast.12 mph85%29.94 "Hg3 mi
Weather by CustomWeather, © 2014

See weather overviewHow to use our weather pages